BEIDOU G1

Last updated on Tue Apr 02 2019 03:15:24 GMT+0000 (Coordinated Universal Time)

1 36287U 10001A 19091.55327170 -.00000297 00000-0 00000+0 0 9996 2 36287 1.4420 351.9831 0001840 170.0153 6.8187 1.00275383 33767
UTC large
Height (km)
Speed (km/s)
/
Latitude / Longitude
Inclination (degrees)
Orbital Period (minutes)
Azimuth
Elevation
Range (km)
Doppler Factor

Next 0 passes for location: London (51.5072 / 0.1276)

Sorry there are no passes over London.